This is the latest recevied weather packets stored in our database for station/object KD8OUK. If no packets are shown the sender has not sent any weather packets the latest 10 day(s).
| Time | Temp. | Humidity | Pressure | Rain* | Wind** | Luminosity | Snow |
|---|---|---|---|---|---|---|---|
| 1777916427 | 23.89° C | 54% | 1007.3 hPa | 0 mm | - | - | - |
| 1777916119 | 23.33° C | 53% | 1007.4 hPa | 0 mm | - | - | - |
| 1777915829 | 22.78° C | 54% | 1007.4 hPa | 0 mm | - | - | - |
| 1777915520 | 22.78° C | 55% | 1007.6 hPa | 0 mm | - | - | - |
| 1777915230 | 23.33° C | 54% | 1007.7 hPa | 0 mm | - | - | - |
| 1777914922 | 22.78° C | 56% | 1007.7 hPa | 0 mm | - | - | - |
| 1777914626 | 22.78° C | 55% | 1007.7 hPa | 0 mm | - | - | - |
| 1777914324 | 22.22° C | 55% | 1007.7 hPa | 0 mm | - | - | - |
| 1777914016 | 22.22° C | 56% | 1007.8 hPa | 0 mm | - | - | - |
| 1777913720 | 22.22° C | 58% | 1007.8 hPa | 0 mm | - | - | - |
| 1777913418 | 21.67° C | 56% | 1008 hPa | 0 mm | - | - | - |
| 1777913116 | 22.22° C | 56% | 1008.2 hPa | 0 mm | - | - | - |
| 1777912821 | 21.67° C | 57% | 1008.2 hPa | 0 mm | - | - | - |
| 1777912531 | 21.67° C | 58% | 1008.3 hPa | 0 mm | - | - | - |
| 1777912223 | 21.11° C | 59% | 1008.3 hPa | 0 mm | - | - | - |
| 1777911933 | 21.11° C | 59% | 1008.2 hPa | 0 mm | - | - | - |
| 1777911625 | 20.56° C | 59% | 1008.2 hPa | 0 mm | - | - | - |
| 1777911317 | 20.56° C | 59% | 1008.3 hPa | 0 mm | - | - | - |
| 1777911027 | 20.56° C | 58% | 1008.4 hPa | 0 mm | - | - | - |
| 1777910720 | 20.56° C | 59% | 1008.4 hPa | 0 mm | - | - | - |
| 1777910429 | 20.56° C | 60% | 1008.5 hPa | 0 mm | - | - | - |
| 1777910121 | 20° C | 61% | 1008.5 hPa | 0 mm | - | - | - |
| 1777909832 | 19.44° C | 61% | 1008.5 hPa | 0 mm | - | - | - |
| 1777909524 | 20° C | 60% | 1008.6 hPa | 0 mm | - | - | - |
| 1777909216 | 19.44° C | 63% | 1008.6 hPa | 0 mm | - | - | - |
* Rain latest hour (hover to see other rain measurements)
** Current wind speed in m/s (hover to see current wind gust speed)